iso_date,epoch_date,Year,Hour,Min,DOY,POS_DOY,Lat,Lon,BP,Ts,Ta,has_bp,has_ts,has_ta,BuoyID,Buoy_Type,Buoy_Owner,Logistics,Hemisphere
2018-04-25T00:00:00Z,1524614400,2018,0,0,115.0,115.0,59.811,-146.2566,1011.5,5.62,-999.0,yes,yes,no,300234062859980,BD2GI,AOML,UNKNOWN,North
2018-04-25T01:00:28Z,1524618029,2018,1,0,115.042,115.042,59.8216,-146.2876,1010.3,5.64,-999.0,yes,yes,no,300234062859980,BD2GI,AOML,UNKNOWN,North
2018-04-25T01:59:31Z,1524621571,2018,2,0,115.083,115.083,59.836,-146.3122,1009.1,5.58,-999.0,yes,yes,no,300234062859980,BD2GI,AOML,UNKNOWN,North
2018-04-25T03:00:00Z,1524625200,2018,3,0,115.125,115.125,59.8518,-146.3298,1009.0,5.61,-999.0,yes,yes,no,300234062859980,BD2GI,AOML,UNKNOWN,North
2018-04-25T04:00:28Z,1524628829,2018,4,0,115.167,115.167,59.8682,-146.3378,1008.6,5.65,-999.0,yes,yes,no,300234062859980,BD2GI,AOML,UNKNOWN,North
2018-04-25T04:59:31Z,1524632371,2018,5,0,115.208,115.208,59.8832,-146.3352,1009.1,5.65,-999.0,yes,yes,no,300234062859980,BD2GI,AOML,UNKNOWN,North
2018-04-25T06:00:00Z,1524636000,2018,6,0,115.25,115.25,59.895,-146.3196,1010.7,5.67,-999.0,yes,yes,no,300234062859980,BD2GI,AOML,UNKNOWN,North
2018-04-25T07:00:28Z,1524639629,2018,7,0,115.292,115.292,59.9024,-146.2946,1012.4,5.73,-999.0,yes,yes,no,300234062859980,BD2GI,AOML,UNKNOWN,North
2018-04-25T07:59:31Z,1524643171,2018,8,0,115.333,115.333,59.9056,-146.2696,1013.5,5.76,-999.0,yes,yes,no,300234062859980,BD2GI,AOML,UNKNOWN,North
2018-04-25T09:00:00Z,1524646800,2018,9,0,115.375,115.375,59.905,-146.2468,1015.0,5.77,-999.0,yes,yes,no,300234062859980,BD2GI,AOML,UNKNOWN,North
2018-04-25T10:00:28Z,1524650429,2018,10,0,115.417,115.417,59.902,-146.2288,1016.5,5.77,-999.0,yes,yes,no,300234062859980,BD2GI,AOML,UNKNOWN,North
2018-04-25T10:59:31Z,1524653971,2018,11,0,115.458,115.458,59.8992,-146.2196,1017.2,5.71,-999.0,yes,yes,no,300234062859980,BD2GI,AOML,UNKNOWN,North
2018-04-25T12:00:00Z,1524657600,2018,12,0,115.5,115.5,59.898,-146.2172,1018.0,5.78,-999.0,yes,yes,no,300234062859980,BD2GI,AOML,UNKNOWN,North
2018-04-25T13:00:28Z,1524661229,2018,13,0,115.542,115.542,59.8992,-146.2182,1018.5,5.78,-999.0,yes,yes,no,300234062859980,BD2GI,AOML,UNKNOWN,North
2018-04-25T13:59:31Z,1524664771,2018,14,0,115.583,115.583,59.9034,-146.2224,1019.1,5.75,-999.0,yes,yes,no,300234062859980,BD2GI,AOML,UNKNOWN,North
2018-04-25T15:00:00Z,1524668400,2018,15,0,115.625,115.625,59.91,-146.227,1019.5,5.73,-999.0,yes,yes,no,300234062859980,BD2GI,AOML,UNKNOWN,North
2018-04-25T16:00:28Z,1524672029,2018,16,0,115.667,115.667,59.9186,-146.2278,1020.4,5.74,-999.0,yes,yes,no,300234062859980,BD2GI,AOML,UNKNOWN,North
2018-04-25T16:59:31Z,1524675571,2018,17,0,115.708,115.708,59.9274,-146.2264,1021.1,5.7,-999.0,yes,yes,no,300234062859980,BD2GI,AOML,UNKNOWN,North
2018-04-25T18:00:00Z,1524679200,2018,18,0,115.75,115.75,59.9358,-146.2182,1021.9,5.7,-999.0,yes,yes,no,300234062859980,BD2GI,AOML,UNKNOWN,North
2018-04-25T19:00:28Z,1524682829,2018,19,0,115.792,115.792,59.942,-146.2036,1022.5,5.73,-999.0,yes,yes,no,300234062859980,BD2GI,AOML,UNKNOWN,North
2018-04-25T19:59:31Z,1524686371,2018,20,0,115.833,115.833,59.9446,-146.1878,1023.0,5.76,-999.0,yes,yes,no,300234062859980,BD2GI,AOML,UNKNOWN,North
2018-04-25T21:00:00Z,1524690000,2018,21,0,115.875,115.875,59.944,-146.1744,1023.7,5.68,-999.0,yes,yes,no,300234062859980,BD2GI,AOML,UNKNOWN,North
2018-04-25T22:00:28Z,1524693629,2018,22,0,115.917,115.917,59.9414,-146.162,1024.2,5.72,-999.0,yes,yes,no,300234062859980,BD2GI,AOML,UNKNOWN,North
2018-04-25T22:59:31Z,1524697171,2018,23,0,115.958,115.958,59.9388,-146.1538,1024.5,5.65,-999.0,yes,yes,no,300234062859980,BD2GI,AOML,UNKNOWN,North
2018-04-26T00:00:00Z,1524700800,2018,0,0,116.0,116.0,59.9378,-146.1514,1024.5,5.77,-999.0,yes,yes,no,300234062859980,BD2GI,AOML,UNKNOWN,North
2018-04-26T01:00:28Z,1524704429,2018,1,0,116.042,116.042,59.9402,-146.153,1024.4,5.77,-999.0,yes,yes,no,300234062859980,BD2GI,AOML,UNKNOWN,North
2018-04-26T01:59:31Z,1524707971,2018,2,0,116.083,116.083,59.9462,-146.156,1024.2,5.88,-999.0,yes,yes,no,300234062859980,BD2GI,AOML,UNKNOWN,North
2018-04-26T03:00:00Z,1524711600,2018,3,0,116.125,116.125,59.9532,-146.16,1024.3,5.91,-999.0,yes,yes,no,300234062859980,BD2GI,AOML,UNKNOWN,North
2018-04-26T04:00:28Z,1524715229,2018,4,0,116.167,116.167,59.9618,-146.161,1024.0,5.84,-999.0,yes,yes,no,300234062859980,BD2GI,AOML,UNKNOWN,North
2018-04-26T04:59:31Z,1524718771,2018,5,0,116.208,116.208,59.9716,-146.1566,1023.8,5.81,-999.0,yes,yes,no,300234062859980,BD2GI,AOML,UNKNOWN,North
2018-04-26T06:00:00Z,1524722400,2018,6,0,116.25,116.25,59.9794,-146.1478,1024.1,5.79,-999.0,yes,yes,no,300234062859980,BD2GI,AOML,UNKNOWN,North
2018-04-26T07:00:28Z,1524726029,2018,7,0,116.292,116.292,59.9846,-146.136,1024.1,5.87,-999.0,yes,yes,no,300234062859980,BD2GI,AOML,UNKNOWN,North
2018-04-26T07:59:31Z,1524729571,2018,8,0,116.333,116.333,59.9858,-146.1248,1023.9,5.74,-999.0,yes,yes,no,300234062859980,BD2GI,AOML,UNKNOWN,North
2018-04-26T09:00:00Z,1524733200,2018,9,0,116.375,116.375,59.9832,-146.1144,1024.1,5.7,-999.0,yes,yes,no,300234062859980,BD2GI,AOML,UNKNOWN,North
2018-04-26T10:00:28Z,1524736829,2018,10,0,116.417,116.417,59.9784,-146.1036,1024.1,5.64,-999.0,yes,yes,no,300234062859980,BD2GI,AOML,UNKNOWN,North
2018-04-26T10:59:31Z,1524740371,2018,11,0,116.458,116.458,59.9714,-146.0982,1023.7,5.66,-999.0,yes,yes,no,300234062859980,BD2GI,AOML,UNKNOWN,North
2018-04-26T12:00:00Z,1524744000,2018,12,0,116.5,116.5,59.9654,-146.0972,1023.4,5.64,-999.0,yes,yes,no,300234062859980,BD2GI,AOML,UNKNOWN,North
2018-04-26T13:00:28Z,1524747629,2018,13,0,116.542,116.542,59.9604,-146.1018,1023.2,5.64,-999.0,yes,yes,no,300234062859980,BD2GI,AOML,UNKNOWN,North
2018-04-26T13:59:31Z,1524751171,2018,14,0,116.583,116.583,59.9592,-146.1104,1023.0,5.66,-999.0,yes,yes,no,300234062859980,BD2GI,AOML,UNKNOWN,North
2018-04-26T15:00:00Z,1524754800,2018,15,0,116.625,116.625,59.961,-146.1208,1022.8,5.64,-999.0,yes,yes,no,300234062859980,BD2GI,AOML,UNKNOWN,North
2018-04-26T16:00:28Z,1524758429,2018,16,0,116.667,116.667,59.965,-146.129,1022.9,5.56,-999.0,yes,yes,no,300234062859980,BD2GI,AOML,UNKNOWN,North
2018-04-26T16:59:31Z,1524761971,2018,17,0,116.708,116.708,59.9696,-146.134,1023.0,5.61,-999.0,yes,yes,no,300234062859980,BD2GI,AOML,UNKNOWN,North
2018-04-26T18:00:00Z,1524765600,2018,18,0,116.75,116.75,59.9744,-146.1332,1023.3,5.54,-999.0,yes,yes,no,300234062859980,BD2GI,AOML,UNKNOWN,North
2018-04-26T19:00:28Z,1524769229,2018,19,0,116.792,116.792,59.9772,-146.1264,1023.2,5.59,-999.0,yes,yes,no,300234062859980,BD2GI,AOML,UNKNOWN,North
2018-04-26T19:59:31Z,1524772771,2018,20,0,116.833,116.833,59.9772,-146.1158,1023.4,5.75,-999.0,yes,yes,no,300234062859980,BD2GI,AOML,UNKNOWN,North
2018-04-26T21:00:00Z,1524776400,2018,21,0,116.875,116.875,59.9726,-146.1032,1023.8,6.02,-999.0,yes,yes,no,300234062859980,BD2GI,AOML,UNKNOWN,North
2018-04-26T22:00:28Z,1524780029,2018,22,0,116.917,116.917,59.964,-146.092,1024.1,6.35,-999.0,yes,yes,no,300234062859980,BD2GI,AOML,UNKNOWN,North
2018-04-26T22:59:31Z,1524783571,2018,23,0,116.958,116.958,59.9538,-146.0844,1024.3,6.74,-999.0,yes,yes,no,300234062859980,BD2GI,AOML,UNKNOWN,North
2018-04-27T00:00:00Z,1524787200,2018,0,0,117.0,117.0,59.9438,-146.0808,1024.2,6.77,-999.0,yes,yes,no,300234062859980,BD2GI,AOML,UNKNOWN,North
2018-04-27T01:00:28Z,1524790829,2018,1,0,117.042,117.042,59.9362,-146.0812,1024.1,6.53,-999.0,yes,yes,no,300234062859980,BD2GI,AOML,UNKNOWN,North
2018-04-27T01:59:31Z,1524794371,2018,2,0,117.083,117.083,59.9318,-146.0866,1024.2,6.34,-999.0,yes,yes,no,300234062859980,BD2GI,AOML,UNKNOWN,North
2018-04-27T03:00:00Z,1524798000,2018,3,0,117.125,117.125,59.9318,-146.0942,1024.0,6.3,-999.0,yes,yes,no,300234062859980,BD2GI,AOML,UNKNOWN,North
2018-04-27T04:00:28Z,1524801629,2018,4,0,117.167,117.167,59.9352,-146.1016,1023.7,6.24,-999.0,yes,yes,no,300234062859980,BD2GI,AOML,UNKNOWN,North
2018-04-27T04:59:31Z,1524805171,2018,5,0,117.208,117.208,59.9406,-146.1054,1023.8,6.19,-999.0,yes,yes,no,300234062859980,BD2GI,AOML,UNKNOWN,North
2018-04-27T06:00:00Z,1524808800,2018,6,0,117.25,117.25,59.946,-146.104,1023.9,6.11,-999.0,yes,yes,no,300234062859980,BD2GI,AOML,UNKNOWN,North
2018-04-27T07:00:28Z,1524812429,2018,7,0,117.292,117.292,59.9492,-146.0974,1023.9,6.11,-999.0,yes,yes,no,300234062859980,BD2GI,AOML,UNKNOWN,North
2018-04-27T07:59:31Z,1524815971,2018,8,0,117.333,117.333,59.9496,-146.0868,1023.8,6.07,-999.0,yes,yes,no,300234062859980,BD2GI,AOML,UNKNOWN,North
2018-04-27T09:00:00Z,1524819600,2018,9,0,117.375,117.375,59.947,-146.0742,1023.8,6.05,-999.0,yes,yes,no,300234062859980,BD2GI,AOML,UNKNOWN,North
2018-04-27T10:00:28Z,1524823229,2018,10,0,117.417,117.417,59.942,-146.0626,1023.8,6.01,-999.0,yes,yes,no,300234062859980,BD2GI,AOML,UNKNOWN,North
2018-04-27T10:59:31Z,1524826771,2018,11,0,117.458,117.458,59.9358,-146.0534,1023.6,6.0,-999.0,yes,yes,no,300234062859980,BD2GI,AOML,UNKNOWN,North
2018-04-27T12:00:00Z,1524830400,2018,12,0,117.5,117.5,59.929,-146.048,1023.1,5.98,-999.0,yes,yes,no,300234062859980,BD2GI,AOML,UNKNOWN,North
2018-04-27T13:00:28Z,1524834029,2018,13,0,117.542,117.542,59.9238,-146.0468,1022.9,5.92,-999.0,yes,yes,no,300234062859980,BD2GI,AOML,UNKNOWN,North
2018-04-27T13:59:31Z,1524837571,2018,14,0,117.583,117.583,59.921,-146.0506,1022.6,5.92,-999.0,yes,yes,no,300234062859980,BD2GI,AOML,UNKNOWN,North
2018-04-27T15:00:00Z,1524841200,2018,15,0,117.625,117.625,59.9208,-146.0618,1022.2,5.82,-999.0,yes,yes,no,300234062859980,BD2GI,AOML,UNKNOWN,North
2018-04-27T16:00:28Z,1524844829,2018,16,0,117.667,117.667,59.9248,-146.0762,1021.7,5.82,-999.0,yes,yes,no,300234062859980,BD2GI,AOML,UNKNOWN,North
2018-04-27T16:59:31Z,1524848371,2018,17,0,117.708,117.708,59.9308,-146.0862,1021.0,5.77,-999.0,yes,yes,no,300234062859980,BD2GI,AOML,UNKNOWN,North
2018-04-27T18:00:00Z,1524852000,2018,18,0,117.75,117.75,59.9382,-146.0908,1020.5,5.74,-999.0,yes,yes,no,300234062859980,BD2GI,AOML,UNKNOWN,North
2018-04-27T19:00:28Z,1524855629,2018,19,0,117.792,117.792,59.945,-146.0898,1019.9,5.74,-999.0,yes,yes,no,300234062859980,BD2GI,AOML,UNKNOWN,North
2018-04-27T19:59:31Z,1524859171,2018,20,0,117.833,117.833,59.9496,-146.0858,1019.3,5.81,-999.0,yes,yes,no,300234062859980,BD2GI,AOML,UNKNOWN,North
2018-04-27T21:00:00Z,1524862800,2018,21,0,117.875,117.875,59.9518,-146.0752,1018.8,5.77,-999.0,yes,yes,no,300234062859980,BD2GI,AOML,UNKNOWN,North
2018-04-27T22:00:28Z,1524866429,2018,22,0,117.917,117.917,59.9514,-146.0648,1018.1,5.74,-999.0,yes,yes,no,300234062859980,BD2GI,AOML,UNKNOWN,North
2018-04-27T22:59:31Z,1524869971,2018,23,0,117.958,117.958,59.948,-146.0522,1017.7,5.75,-999.0,yes,yes,no,300234062859980,BD2GI,AOML,UNKNOWN,North
2018-04-28T00:00:00Z,1524873600,2018,0,0,118.0,118.0,59.9422,-146.0422,1017.2,5.78,-999.0,yes,yes,no,300234062859980,BD2GI,AOML,UNKNOWN,North
2018-04-28T01:00:28Z,1524877229,2018,1,0,118.042,118.042,59.937,-146.0378,1016.6,5.86,-999.0,yes,yes,no,300234062859980,BD2GI,AOML,UNKNOWN,North
2018-04-28T01:59:31Z,1524880771,2018,2,0,118.083,118.083,59.9338,-146.0402,1016.5,5.89,-999.0,yes,yes,no,300234062859980,BD2GI,AOML,UNKNOWN,North
2018-04-28T03:00:00Z,1524884400,2018,3,0,118.125,118.125,59.934,-146.05,1015.9,5.97,-999.0,yes,yes,no,300234062859980,BD2GI,AOML,UNKNOWN,North
2018-04-28T04:00:28Z,1524888029,2018,4,0,118.167,118.167,59.9394,-146.0644,1015.6,5.94,-999.0,yes,yes,no,300234062859980,BD2GI,AOML,UNKNOWN,North
2018-04-28T04:59:31Z,1524891571,2018,5,0,118.208,118.208,59.9472,-146.0818,1015.4,5.98,-999.0,yes,yes,no,300234062859980,BD2GI,AOML,UNKNOWN,North
2018-04-28T06:00:00Z,1524895200,2018,6,0,118.25,118.25,59.956,-146.0948,1015.6,5.92,-999.0,yes,yes,no,300234062859980,BD2GI,AOML,UNKNOWN,North
2018-04-28T07:00:28Z,1524898829,2018,7,0,118.292,118.292,59.964,-146.103,1015.5,5.97,-999.0,yes,yes,no,300234062859980,BD2GI,AOML,UNKNOWN,North
2018-04-28T07:59:31Z,1524902371,2018,8,0,118.333,118.333,59.9706,-146.1068,1015.7,5.97,-999.0,yes,yes,no,300234062859980,BD2GI,AOML,UNKNOWN,North
2018-04-28T09:00:00Z,1524906000,2018,9,0,118.375,118.375,59.9738,-146.1062,1015.9,5.93,-999.0,yes,yes,no,300234062859980,BD2GI,AOML,UNKNOWN,North
2018-04-28T10:00:28Z,1524909629,2018,10,0,118.417,118.417,59.973,-146.1038,1016.3,5.91,-999.0,yes,yes,no,300234062859980,BD2GI,AOML,UNKNOWN,North
2018-04-28T10:59:31Z,1524913171,2018,11,0,118.458,118.458,59.9686,-146.1026,1016.7,5.89,-999.0,yes,yes,no,300234062859980,BD2GI,AOML,UNKNOWN,North
2018-04-28T12:00:00Z,1524916800,2018,12,0,118.5,118.5,59.962,-146.1042,1016.8,5.85,-999.0,yes,yes,no,300234062859980,BD2GI,AOML,UNKNOWN,North
2018-04-28T13:00:28Z,1524920429,2018,13,0,118.542,118.542,59.9554,-146.1108,1017.1,5.83,-999.0,yes,yes,no,300234062859980,BD2GI,AOML,UNKNOWN,North
2018-04-28T13:59:31Z,1524923971,2018,14,0,118.583,118.583,59.9508,-146.123,1017.3,5.8,-999.0,yes,yes,no,300234062859980,BD2GI,AOML,UNKNOWN,North
2018-04-28T15:00:00Z,1524927600,2018,15,0,118.625,118.625,59.951,-146.1416,1017.3,5.82,-999.0,yes,yes,no,300234062859980,BD2GI,AOML,UNKNOWN,North
2018-04-28T16:00:28Z,1524931229,2018,16,0,118.667,118.667,59.955,-146.1648,1017.4,5.92,-999.0,yes,yes,no,300234062859980,BD2GI,AOML,UNKNOWN,North
2018-04-28T16:59:31Z,1524934771,2018,17,0,118.708,118.708,59.9628,-146.1902,1017.2,5.95,-999.0,yes,yes,no,300234062859980,BD2GI,AOML,UNKNOWN,North
2018-04-28T18:00:00Z,1524938400,2018,18,0,118.75,118.75,59.9744,-146.2134,1017.3,5.97,-999.0,yes,yes,no,300234062859980,BD2GI,AOML,UNKNOWN,North
2018-04-28T19:00:28Z,1524942029,2018,19,0,118.792,118.792,59.9878,-146.229,1017.2,5.86,-999.0,yes,yes,no,300234062859980,BD2GI,AOML,UNKNOWN,North
2018-04-28T19:59:31Z,1524945571,2018,20,0,118.833,118.833,60.0014,-146.2352,1017.3,5.77,-999.0,yes,yes,no,300234062859980,BD2GI,AOML,UNKNOWN,North
2018-04-28T21:00:00Z,1524949200,2018,21,0,118.875,118.875,60.0118,-146.237,1016.8,5.78,-999.0,yes,yes,no,300234062859980,BD2GI,AOML,UNKNOWN,North
2018-04-28T22:00:28Z,1524952829,2018,22,0,118.917,118.917,60.0184,-146.2366,1016.7,5.86,-999.0,yes,yes,no,300234062859980,BD2GI,AOML,UNKNOWN,North
2018-04-28T22:59:31Z,1524956371,2018,23,0,118.958,118.958,60.0214,-146.2354,1017.0,5.76,-999.0,yes,yes,no,300234062859980,BD2GI,AOML,UNKNOWN,North
2018-04-29T00:00:00Z,1524960000,2018,0,0,119.0,119.0,60.021,-146.2334,1016.8,5.71,-999.0,yes,yes,no,300234062859980,BD2GI,AOML,UNKNOWN,North
2018-04-29T01:00:28Z,1524963629,2018,1,0,119.042,119.042,60.019,-146.2292,1016.7,5.69,-999.0,yes,yes,no,300234062859980,BD2GI,AOML,UNKNOWN,North
2018-04-29T01:59:31Z,1524967171,2018,2,0,119.083,119.083,60.0172,-146.23,1016.6,5.74,-999.0,yes,yes,no,300234062859980,BD2GI,AOML,UNKNOWN,North
2018-04-29T03:00:00Z,1524970800,2018,3,0,119.125,119.125,60.0178,-146.2376,1016.6,5.73,-999.0,yes,yes,no,300234062859980,BD2GI,AOML,UNKNOWN,North
2018-04-29T04:00:28Z,1524974429,2018,4,0,119.167,119.167,60.0216,-146.2522,1016.4,5.69,-999.0,yes,yes,no,300234062859980,BD2GI,AOML,UNKNOWN,North
2018-04-29T04:59:31Z,1524977971,2018,5,0,119.208,119.208,60.0296,-146.2716,1016.5,5.74,-999.0,yes,yes,no,300234062859980,BD2GI,AOML,UNKNOWN,North
2018-04-29T06:00:00Z,1524981600,2018,6,0,119.25,119.25,60.0416,-146.2928,1016.4,5.72,-999.0,yes,yes,no,300234062859980,BD2GI,AOML,UNKNOWN,North
2018-04-29T07:00:28Z,1524985229,2018,7,0,119.292,119.292,60.0554,-146.3112,1016.7,5.65,-999.0,yes,yes,no,300234062859980,BD2GI,AOML,UNKNOWN,North
2018-04-29T07:59:31Z,1524988771,2018,8,0,119.333,119.333,60.069,-146.3238,1016.6,5.68,-999.0,yes,yes,no,300234062859980,BD2GI,AOML,UNKNOWN,North
2018-04-29T09:00:00Z,1524992400,2018,9,0,119.375,119.375,60.0814,-146.3296,1016.5,5.69,-999.0,yes,yes,no,300234062859980,BD2GI,AOML,UNKNOWN,North
2018-04-29T10:00:28Z,1524996029,2018,10,0,119.417,119.417,60.091,-146.3296,1016.6,5.73,-999.0,yes,yes,no,300234062859980,BD2GI,AOML,UNKNOWN,North
2018-04-29T10:59:31Z,1524999571,2018,11,0,119.458,119.458,60.097,-146.325,1016.4,5.74,-999.0,yes,yes,no,300234062859980,BD2GI,AOML,UNKNOWN,North
2018-04-29T12:00:00Z,1525003200,2018,12,0,119.5,119.5,60.099,-146.318,1016.3,5.79,-999.0,yes,yes,no,300234062859980,BD2GI,AOML,UNKNOWN,North
2018-04-29T13:00:28Z,1525006829,2018,13,0,119.542,119.542,60.0976,-146.3116,1016.3,5.74,-999.0,yes,yes,no,300234062859980,BD2GI,AOML,UNKNOWN,North
2018-04-29T13:59:31Z,1525010371,2018,14,0,119.583,119.583,60.0946,-146.3082,1016.6,5.76,-999.0,yes,yes,no,300234062859980,BD2GI,AOML,UNKNOWN,North
2018-04-29T15:00:00Z,1525014000,2018,15,0,119.625,119.625,60.0928,-146.3124,1016.6,5.77,-999.0,yes,yes,no,300234062859980,BD2GI,AOML,UNKNOWN,North
2018-04-29T16:00:28Z,1525017629,2018,16,0,119.667,119.667,60.0944,-146.327,1016.2,5.77,-999.0,yes,yes,no,300234062859980,BD2GI,AOML,UNKNOWN,North
2018-04-29T16:59:31Z,1525021171,2018,17,0,119.708,119.708,60.0996,-146.35,1016.1,5.78,-999.0,yes,yes,no,300234062859980,BD2GI,AOML,UNKNOWN,North
2018-04-29T18:00:00Z,1525024800,2018,18,0,119.75,119.75,60.1086,-146.3768,1016.1,5.79,-999.0,yes,yes,no,300234062859980,BD2GI,AOML,UNKNOWN,North
2018-04-29T19:00:28Z,1525028429,2018,19,0,119.792,119.792,60.1194,-146.4022,1016.0,5.77,-999.0,yes,yes,no,300234062859980,BD2GI,AOML,UNKNOWN,North
2018-04-29T19:59:31Z,1525031971,2018,20,0,119.833,119.833,60.1324,-146.4206,1015.6,5.81,-999.0,yes,yes,no,300234062859980,BD2GI,AOML,UNKNOWN,North
2018-04-29T21:00:00Z,1525035600,2018,21,0,119.875,119.875,60.1448,-146.4324,1015.1,5.86,-999.0,yes,yes,no,300234062859980,BD2GI,AOML,UNKNOWN,North
2018-04-29T22:00:28Z,1525039229,2018,22,0,119.917,119.917,60.1558,-146.4362,1015.2,5.83,-999.0,yes,yes,no,300234062859980,BD2GI,AOML,UNKNOWN,North
2018-04-29T22:59:31Z,1525042771,2018,23,0,119.958,119.958,60.1638,-146.4326,1015.0,5.9,-999.0,yes,yes,no,300234062859980,BD2GI,AOML,UNKNOWN,North
2018-04-30T00:00:00Z,1525046400,2018,0,0,120.0,120.0,60.169,-146.4236,1015.0,5.83,-999.0,yes,yes,no,300234062859980,BD2GI,AOML,UNKNOWN,North
2018-04-30T01:00:28Z,1525050029,2018,1,0,120.042,120.042,60.1712,-146.4134,1014.6,5.9,-999.0,yes,yes,no,300234062859980,BD2GI,AOML,UNKNOWN,North
2018-04-30T01:59:31Z,1525053571,2018,2,0,120.083,120.083,60.1718,-146.4028,1014.9,5.85,-999.0,yes,yes,no,300234062859980,BD2GI,AOML,UNKNOWN,North
2018-04-30T03:00:00Z,1525057200,2018,3,0,120.125,120.125,60.1716,-146.3978,1014.0,5.88,-999.0,yes,yes,no,300234062859980,BD2GI,AOML,UNKNOWN,North
2018-04-30T04:00:28Z,1525060829,2018,4,0,120.167,120.167,60.1712,-146.4068,1014.5,5.82,-999.0,yes,yes,no,300234062859980,BD2GI,AOML,UNKNOWN,North
2018-04-30T04:59:31Z,1525064371,2018,5,0,120.208,120.208,60.1738,-146.4296,1014.6,5.78,-999.0,yes,yes,no,300234062859980,BD2GI,AOML,UNKNOWN,North
2018-04-30T06:00:00Z,1525068000,2018,6,0,120.25,120.25,60.1776,-146.4552,1014.2,5.78,-999.0,yes,yes,no,300234062859980,BD2GI,AOML,UNKNOWN,North
2018-04-30T07:00:28Z,1525071629,2018,7,0,120.292,120.292,60.1816,-146.479,1014.6,5.74,-999.0,yes,yes,no,300234062859980,BD2GI,AOML,UNKNOWN,North
2018-04-30T07:59:31Z,1525075171,2018,8,0,120.333,120.333,60.181,-146.509,1014.4,5.47,-999.0,yes,yes,no,300234062859980,BD2GI,AOML,UNKNOWN,North
2018-04-30T09:00:00Z,1525078800,2018,9,0,120.375,120.375,60.1752,-146.5478,1014.8,5.46,-999.0,yes,yes,no,300234062859980,BD2GI,AOML,UNKNOWN,North
2018-04-30T10:00:28Z,1525082429,2018,10,0,120.417,120.417,60.1686,-146.5784,1015.1,5.58,-999.0,yes,yes,no,300234062859980,BD2GI,AOML,UNKNOWN,North
2018-04-30T10:59:31Z,1525085971,2018,11,0,120.458,120.458,60.149,-146.6038,1015.1,5.47,-999.0,yes,yes,no,300234062859980,BD2GI,AOML,UNKNOWN,North
2018-04-30T12:00:00Z,1525089600,2018,12,0,120.5,120.5,60.129,-146.6142,1015.2,5.64,-999.0,yes,yes,no,300234062859980,BD2GI,AOML,UNKNOWN,North
2018-04-30T13:00:28Z,1525093229,2018,13,0,120.542,120.542,60.111,-146.6236,1015.3,5.65,-999.0,yes,yes,no,300234062859980,BD2GI,AOML,UNKNOWN,North
2018-04-30T13:59:31Z,1525096771,2018,14,0,120.583,120.583,60.0966,-146.6354,1015.7,5.62,-999.0,yes,yes,no,300234062859980,BD2GI,AOML,UNKNOWN,North
2018-04-30T15:00:00Z,1525100400,2018,15,0,120.625,120.625,60.0864,-146.6498,1015.8,5.64,-999.0,yes,yes,no,300234062859980,BD2GI,AOML,UNKNOWN,North
2018-04-30T16:00:28Z,1525104029,2018,16,0,120.667,120.667,60.082,-146.6662,1016.3,5.68,-999.0,yes,yes,no,300234062859980,BD2GI,AOML,UNKNOWN,North
2018-04-30T16:59:31Z,1525107571,2018,17,0,120.708,120.708,60.086,-146.6806,1016.6,5.69,-999.0,yes,yes,no,300234062859980,BD2GI,AOML,UNKNOWN,North
2018-04-30T18:00:00Z,1525111200,2018,18,0,120.75,120.75,60.0942,-146.6912,1017.0,5.7,-999.0,yes,yes,no,300234062859980,BD2GI,AOML,UNKNOWN,North
2018-04-30T19:00:28Z,1525114829,2018,19,0,120.792,120.792,60.0976,-146.7128,1017.5,5.54,-999.0,yes,yes,no,300234062859980,BD2GI,AOML,UNKNOWN,North
2018-04-30T19:59:31Z,1525118371,2018,20,0,120.833,120.833,60.1006,-146.7388,1017.9,5.52,-999.0,yes,yes,no,300234062859980,BD2GI,AOML,UNKNOWN,North
2018-04-30T21:00:00Z,1525122000,2018,21,0,120.875,120.875,60.1036,-146.7606,1018.2,5.59,-999.0,yes,yes,no,300234062859980,BD2GI,AOML,UNKNOWN,North
2018-04-30T22:00:28Z,1525125629,2018,22,0,120.917,120.917,60.1044,-146.7824,1018.2,5.6,-999.0,yes,yes,no,300234062859980,BD2GI,AOML,UNKNOWN,North
2018-04-30T22:59:31Z,1525129171,2018,23,0,120.958,120.958,60.1036,-146.8066,1018.3,5.6,-999.0,yes,yes,no,300234062859980,BD2GI,AOML,UNKNOWN,North
2018-05-01T00:00:00Z,1525132800,2018,0,0,121.0,121.0,60.1012,-146.837,1018.2,5.59,-999.0,yes,yes,no,300234062859980,BD2GI,AOML,UNKNOWN,North
2018-05-01T01:00:28Z,1525136429,2018,1,0,121.042,121.042,60.101,-146.8666,1018.2,5.65,-999.0,yes,yes,no,300234062859980,BD2GI,AOML,UNKNOWN,North
2018-05-01T01:59:31Z,1525139971,2018,2,0,121.083,121.083,60.1018,-146.893,1018.3,5.58,-999.0,yes,yes,no,300234062859980,BD2GI,AOML,UNKNOWN,North
2018-05-01T03:00:00Z,1525143600,2018,3,0,121.125,121.125,60.1022,-146.9156,1018.3,5.65,-999.0,yes,yes,no,300234062859980,BD2GI,AOML,UNKNOWN,North
2018-05-01T04:00:28Z,1525147229,2018,4,0,121.167,121.167,60.1036,-146.9392,1018.1,5.6,-999.0,yes,yes,no,300234062859980,BD2GI,AOML,UNKNOWN,North
2018-05-01T04:59:31Z,1525150771,2018,5,0,121.208,121.208,60.109,-146.9622,1017.8,5.66,-999.0,yes,yes,no,300234062859980,BD2GI,AOML,UNKNOWN,North
2018-05-01T06:00:00Z,1525154400,2018,6,0,121.25,121.25,60.1192,-146.989,1017.6,5.6,-999.0,yes,yes,no,300234062859980,BD2GI,AOML,UNKNOWN,North
2018-05-01T07:00:28Z,1525158029,2018,7,0,121.292,121.292,60.1332,-147.013,1017.2,5.61,-999.0,yes,yes,no,300234062859980,BD2GI,AOML,UNKNOWN,North
2018-05-01T07:59:31Z,1525161571,2018,8,0,121.333,121.333,60.1442,-147.0324,1016.6,5.53,-999.0,yes,yes,no,300234062859980,BD2GI,AOML,UNKNOWN,North
2018-05-01T09:00:00Z,1525165200,2018,9,0,121.375,121.375,60.1546,-147.0422,1016.0,5.58,-999.0,yes,yes,no,300234062859980,BD2GI,AOML,UNKNOWN,North
2018-05-01T10:00:28Z,1525168829,2018,10,0,121.417,121.417,60.1606,-147.0498,1015.5,5.54,-999.0,yes,yes,no,300234062859980,BD2GI,AOML,UNKNOWN,North
2018-05-01T10:59:31Z,1525172371,2018,11,0,121.458,121.458,60.163,-147.0596,1014.8,5.57,-999.0,yes,yes,no,300234062859980,BD2GI,AOML,UNKNOWN,North
2018-05-01T12:00:00Z,1525176000,2018,12,0,121.5,121.5,60.1646,-147.0728,1014.2,5.53,-999.0,yes,yes,no,300234062859980,BD2GI,AOML,UNKNOWN,North
2018-05-01T13:00:28Z,1525179629,2018,13,0,121.542,121.542,60.1636,-147.0868,1013.7,5.56,-999.0,yes,yes,no,300234062859980,BD2GI,AOML,UNKNOWN,North
2018-05-01T13:59:31Z,1525183171,2018,14,0,121.583,121.583,60.161,-147.1014,1012.9,5.55,-999.0,yes,yes,no,300234062859980,BD2GI,AOML,UNKNOWN,North
2018-05-01T15:00:00Z,1525186800,2018,15,0,121.625,121.625,60.1574,-147.1164,1012.5,5.49,-999.0,yes,yes,no,300234062859980,BD2GI,AOML,UNKNOWN,North
2018-05-01T16:00:28Z,1525190429,2018,16,0,121.667,121.667,60.155,-147.1352,1011.7,5.54,-999.0,yes,yes,no,300234062859980,BD2GI,AOML,UNKNOWN,North
2018-05-01T16:59:31Z,1525193971,2018,17,0,121.708,121.708,60.1556,-147.1468,1011.4,5.55,-999.0,yes,yes,no,300234062859980,BD2GI,AOML,UNKNOWN,North
2018-05-01T18:00:00Z,1525197600,2018,18,0,121.75,121.75,60.1596,-147.1494,1011.0,5.53,-999.0,yes,yes,no,300234062859980,BD2GI,AOML,UNKNOWN,North
2018-05-01T19:00:28Z,1525201229,2018,19,0,121.792,121.792,60.1674,-147.1418,1010.3,5.5,-999.0,yes,yes,no,300234062859980,BD2GI,AOML,UNKNOWN,North